Time,TemperatureF,DewpointF,PressureIn,WindDirection,WindDirectionDegrees,WindSpeedMPH,WindSpeedGustMPH,Humidity,HourlyPrecipIn,Conditions,Clouds,dailyrainin,SoftwareType,DateUTC
2013-02-14 00:02:00,47.0,45.0,30.03,WSW,254,0.0,-999.0,94,-99.99,,,-99.99,,2013-02-14 06:02:00,
2013-02-14 00:11:00,47.0,45.0,30.03,SSE,166,0.0,-999.0,94,-99.99,,,-99.99,,2013-02-14 06:11:00,
2013-02-14 00:21:00,47.0,45.0,30.03,SSE,166,0.0,-999.0,94,-99.99,,,-99.99,,2013-02-14 06:21:00,
2013-02-14 00:32:00,47.0,45.0,30.01,West,267,0.0,-999.0,94,-99.99,,,-99.99,,2013-02-14 06:32:00,
2013-02-14 00:42:00,47.0,45.0,30.01,West,267,0.0,-999.0,94,-99.99,,,-99.99,,2013-02-14 06:42:00,
2013-02-14 00:51:00,47.0,45.0,30.03,SSW,205,0.0,-999.0,94,-99.99,,,-99.99,,2013-02-14 06:51:00,
2013-02-14 01:01:00,46.0,44.0,30.02,ESE,121,0.0,-999.0,94,-99.99,,,-99.99,,2013-02-14 07:01:00,
2013-02-14 01:11:00,46.0,44.0,30.02,ESE,121,0.0,-999.0,94,-99.99,,,-99.99,,2013-02-14 07:11:00,
2013-02-14 01:21:00,46.0,44.0,30.03,SSW,205,0.0,-999.0,94,-99.99,,,-99.99,,2013-02-14 07:21:00,
2013-02-14 01:32:00,46.0,44.0,30.03,WSW,252,0.0,-999.0,93,-99.99,,,-99.99,,2013-02-14 07:32:00,
2013-02-14 01:41:00,46.0,44.0,30.03,WSW,252,0.0,-999.0,93,-99.99,,,-99.99,,2013-02-14 07:41:00,
2013-02-14 01:51:00,45.0,43.0,30.03,SW,223,0.0,-999.0,93,-99.99,,,-99.99,,2013-02-14 07:51:00,
2013-02-14 02:01:00,45.0,43.0,30.02,SSW,211,0.0,-999.0,94,-99.99,,,-99.99,,2013-02-14 08:01:00,
2013-02-14 02:11:00,45.0,43.0,30.02,SSW,211,0.0,-999.0,94,-99.99,,,-99.99,,2013-02-14 08:11:00,
2013-02-14 02:21:00,44.0,42.0,30.02,SSW,211,0.0,-999.0,94,-99.99,,,-99.99,,2013-02-14 08:21:00,
2013-02-14 02:32:00,44.0,42.0,30.00,SW,225,0.0,-999.0,94,-99.99,,,-99.99,,2013-02-14 08:32:00,
2013-02-14 02:43:00,44.0,42.0,30.00,SW,225,0.0,-999.0,94,-99.99,,,-99.99,,2013-02-14 08:43:00,
2013-02-14 02:52:00,44.0,42.0,30.00,West,273,0.0,-999.0,94,-99.99,,,-99.99,,2013-02-14 08:52:00,
2013-02-14 03:02:00,44.0,42.0,30.01,NW,310,0.0,-999.0,94,-99.99,,,-99.99,,2013-02-14 09:02:00,
2013-02-14 03:11:00,44.0,42.0,30.01,NW,310,0.0,-999.0,94,-99.99,,,-99.99,,2013-02-14 09:11:00,
2013-02-14 03:21:00,44.0,42.0,30.03,SW,234,0.0,-999.0,94,-99.99,,,-99.99,,2013-02-14 09:21:00,
2013-02-14 03:31:00,43.0,41.0,30.02,SW,218,0.0,-999.0,94,-99.99,,,-99.99,,2013-02-14 09:31:00,
2013-02-14 03:42:00,43.0,41.0,30.02,SW,218,0.0,-999.0,94,-99.99,,,-99.99,,2013-02-14 09:42:00,
2013-02-14 03:51:00,43.0,41.0,30.02,WNW,283,0.0,-999.0,94,-99.99,,,-99.99,,2013-02-14 09:51:00,
2013-02-14 04:02:00,43.0,41.0,30.01,SW,217,0.0,-999.0,94,-99.99,,,-99.99,,2013-02-14 10:02:00,
2013-02-14 04:11:00,43.0,41.0,30.02,WNW,290,0.0,-999.0,94,-99.99,,,-99.99,,2013-02-14 10:11:00,
2013-02-14 04:21:00,43.0,41.0,30.02,WNW,290,0.0,-999.0,94,-99.99,,,-99.99,,2013-02-14 10:21:00,
2013-02-14 04:31:00,43.0,41.0,30.03,SE,144,0.0,-999.0,94,-99.99,,,-99.99,,2013-02-14 10:31:00,
2013-02-14 04:42:00,43.0,41.0,30.03,SE,144,0.0,-999.0,94,-99.99,,,-99.99,,2013-02-14 10:42:00,
2013-02-14 04:52:00,43.0,41.0,30.03,SE,128,0.0,-999.0,93,-99.99,,,-99.99,,2013-02-14 10:52:00,
2013-02-14 05:02:00,43.0,41.0,30.00,WSW,256,1.0,-999.0,93,-99.99,,,-99.99,,2013-02-14 11:02:00,
2013-02-14 05:11:00,43.0,41.0,30.00,WSW,256,1.0,-999.0,93,-99.99,,,-99.99,,2013-02-14 11:11:00,
2013-02-14 05:21:00,43.0,41.0,30.03,SSE,164,0.0,-999.0,93,-99.99,,,-99.99,,2013-02-14 11:21:00,
2013-02-14 05:32:00,42.0,40.0,30.04,WSW,238,0.0,-999.0,93,-99.99,,,-99.99,,2013-02-14 11:32:00,
2013-02-14 05:42:00,42.0,40.0,30.04,WSW,238,0.0,-999.0,93,-99.99,,,-99.99,,2013-02-14 11:42:00,
2013-02-14 05:52:00,42.0,40.0,30.06,SW,225,0.0,-999.0,93,-99.99,,,-99.99,,2013-02-14 11:52:00,
2013-02-14 06:02:00,42.0,40.0,30.07,ESE,114,0.0,-999.0,93,-99.99,,,-99.99,,2013-02-14 12:02:00,
2013-02-14 06:11:00,42.0,40.0,30.07,ESE,114,0.0,-999.0,93,-99.99,,,-99.99,,2013-02-14 12:11:00,
2013-02-14 06:22:00,42.0,40.0,30.05,SW,229,0.0,-999.0,93,-99.99,,,-99.99,,2013-02-14 12:22:00,
2013-02-14 06:32:00,42.0,40.0,30.06,SE,140,1.0,-999.0,93,-99.99,,,-99.99,,2013-02-14 12:32:00,
2013-02-14 06:42:00,42.0,40.0,30.06,SE,140,1.0,-999.0,93,-99.99,,,-99.99,,2013-02-14 12:42:00,
2013-02-14 09:21:00,44.0,42.0,30.14,SW,229,1.0,-999.0,92,-99.99,,,-99.99,,2013-02-14 15:21:00,
2013-02-14 09:31:00,44.0,42.0,30.12,West,272,1.0,-999.0,91,-99.99,,,-99.99,,2013-02-14 15:31:00,
2013-02-14 09:41:00,44.0,42.0,30.12,West,272,1.0,-999.0,91,-99.99,,,-99.99,,2013-02-14 15:41:00,
2013-02-14 09:52:00,44.0,41.0,30.12,SE,134,2.0,-999.0,90,-99.99,,,-99.99,,2013-02-14 15:52:00,
2013-02-14 10:01:00,45.0,42.0,30.13,WSW,242,1.0,-999.0,90,-99.99,,,-99.99,,2013-02-14 16:01:00,
2013-02-14 10:11:00,46.0,42.0,30.13,WSW,245,1.0,-999.0,87,-99.99,,,-99.99,,2013-02-14 16:11:00,
2013-02-14 10:21:00,46.0,42.0,30.13,WSW,245,1.0,-999.0,87,-99.99,,,-99.99,,2013-02-14 16:21:00,
2013-02-14 10:32:00,46.0,42.0,30.14,SW,227,1.0,-999.0,87,-99.99,,,-99.99,,2013-02-14 16:32:00,
2013-02-14 10:41:00,46.0,42.0,30.14,SW,227,1.0,-999.0,87,-99.99,,,-99.99,,2013-02-14 16:41:00,
2013-02-14 10:52:00,47.0,43.0,30.13,SSW,192,1.0,-999.0,85,-99.99,,,-99.99,,2013-02-14 16:52:00,
2013-02-14 11:01:00,47.0,42.0,30.11,WNW,290,1.0,-999.0,83,-99.99,,,-99.99,,2013-02-14 17:01:00,
2013-02-14 11:11:00,47.0,42.0,30.11,WNW,290,1.0,-999.0,83,-99.99,,,-99.99,,2013-02-14 17:11:00,
2013-02-14 11:21:00,47.0,42.0,30.11,SW,224,0.0,-999.0,83,-99.99,,,-99.99,,2013-02-14 17:21:00,
2013-02-14 11:31:00,48.0,43.0,30.13,WSW,254,1.0,-999.0,82,-99.99,,,-99.99,,2013-02-14 17:31:00,
2013-02-14 11:41:00,48.0,43.0,30.13,WSW,254,1.0,-999.0,82,-99.99,,,-99.99,,2013-02-14 17:41:00,
2013-02-14 11:52:00,48.0,43.0,30.13,East,96,0.0,-999.0,82,-99.99,,,-99.99,,2013-02-14 17:52:00,
2013-02-14 12:01:00,48.0,43.0,30.11,SSW,200,1.0,-999.0,82,-99.99,,,-99.99,,2013-02-14 18:01:00,
2013-02-14 12:11:00,48.0,43.0,30.11,SSW,200,1.0,-999.0,82,-99.99,,,-99.99,,2013-02-14 18:11:00,
2013-02-14 12:23:00,49.0,44.0,30.12,ESE,108,1.0,-999.0,82,-99.99,,,-99.99,,2013-02-14 18:23:00,
2013-02-14 12:32:00,49.0,43.0,30.10,SSW,199,1.0,-999.0,79,-99.99,,,-99.99,,2013-02-14 18:32:00,
2013-02-14 12:42:00,49.0,43.0,30.10,SSW,199,1.0,-999.0,79,-99.99,,,-99.99,,2013-02-14 18:42:00,
2013-02-14 12:52:00,48.0,42.0,30.08,ENE,76,2.0,-999.0,80,-99.99,,,-99.99,,2013-02-14 18:52:00,
2013-02-14 13:02:00,49.0,43.0,30.08,South,178,1.0,-999.0,79,-99.99,,,-99.99,,2013-02-14 19:02:00,
2013-02-14 13:11:00,49.0,43.0,30.08,South,178,1.0,-999.0,79,-99.99,,,-99.99,,2013-02-14 19:11:00,